Powrót do katalogu

STARLINK-38141

AktywnyŁącznośćSSO
NORAD 100188·PAYLOAD·🇺🇸 United States

Wystrzelony Aug 1, 2026 z Vandenberg Space Force Base

Loading…

Następne Przeloty (najbliższe 24 godziny)

TLE

ŚwieżeSource: Space-Track

Epoka: Sep 14, 2026, 12:56 UTC

1 A0188U 26175K   26257.53937133  .00090671  00000-0  60259-3 0  9992
2 A0188  97.2847  99.6142 0001306  54.4322 305.7065 15.75180018  8232

Śledź STARLINK-38141 w czasie rzeczywistym z AllMySat

Download on the App Store